1491156001.17,62882,17.44,74142.0,-1.55,-27.89,-28.31,0,*5B
1491156002.44,62883,17.44,74146.0,-1.59,-27.83,-28.21,0,*5D
1491156003.7,62884,17.44,74142.0,-1.59,-27.83,-28.21,0,*5A
1491156004.94,62885,17.44,74140.8,-1.59,-27.99,-28.31,0,*51
1491156006.21,62886,17.44,74138.0,-1.59,-28.05,-28.43,0,*5D
1491156007.47,62887,17.44,74142.8,-1.59,-27.99,-28.43,0,*56
1491156008.75,62888,17.44,74140.8,-1.61,-28.09,-28.47,0,*50
1491156010.01,62889,17.44,74140.3,-1.61,-27.89,-28.25,0,*52
1491156011.23,62890,17.44,74146.5,-1.59,-27.71,-28.15,0,*55
1491156012.5,62891,17.44,74140.0,-1.61,-27.93,-28.25,0,*50
1491156013.76,62892,17.44,74146.5,-1.61,-27.93,-28.25,0,*53
1491156015.03,62893,17.44,74142.3,-1.61,-27.71,-28.09,0,*50
1491156016.26,62894,17.44,74142.3,-1.61,-27.55,-27.93,0,*5D
1491156017.49,62895,17.44,74146.8,-1.61,-27.89,-28.37,0,*5C
1491156018.75,62896,17.44,74142.8,-1.59,-27.99,-28.43,0,*56
1491156020.02,62897,17.44,74142.8,-1.63,-28.21,-28.59,0,*59
1491156021.31,62898,17.44,74142.5,-1.61,-28.05,-28.43,0,*59
1491156022.58,62899,17.44,74142.5,-1.61,-28.05,-28.31,0,*5D
1491156023.82,62900,17.44,74142.0,-1.63,-27.89,-28.21,0,*54
1491156025.08,62901,17.44,74140.3,-1.61,-27.89,-28.25,0,*53
1491156026.34,62902,17.44,74138.8,-1.63,-28.09,-28.43,0,*55
1491156027.6,62903,17.44,74140.5,-1.63,-28.09,-28.47,0,*50
1491156028.84,62904,17.44,74142.0,-1.61,-27.93,-28.37,0,*5E
1491156030.08,62905,17.44,74144.0,-1.63,-27.71,-28.21,0,*56
1491156031.32,62906,17.44,74144.5,-1.63,-27.61,-27.93,0,*52
1491156032.59,62907,17.44,74142.8,-1.63,-27.61,-28.05,0,*53
1491156033.83,62908,17.44,74144.0,-1.59,-27.71,-28.05,0,*54
1491156035.1,62909,17.44,74140.3,-1.61,-28.05,-28.37,0,*53
1491156036.36,62910,17.44,74142.8,-1.61,-28.05,-28.37,0,*5B
1491156037.6,62911,17.44,74144.5,-1.63,-28.05,-28.37,0,*58
1491156038.81,62912,17.44,74142.0,-1.63,-27.55,-27.93,0,*50
1491156040.08,62913,17.44,74140.5,-1.63,-27.61,-28.05,0,*56
1491156041.32,62914,17.44,74144.8,-1.63,-27.77,-28.09,0,*5A
1491156042.58,62915,17.44,74142.8,-1.63,-28.05,-28.43,0,*5F
1491156043.84,62916,17.44,74140.8,-1.63,-28.09,-28.47,0,*54
1491156045.1,62917,17.44,74142.8,-1.63,-28.05,-28.43,0,*5D
1491156046.34,62918,17.44,74140.3,-1.63,-27.89,-28.25,0,*59
1491156047.6,62919,17.44,74142.0,-1.63,-28.05,-28.43,0,*53
1491156048.86,62920,17.44,74140.8,-1.63,-28.09,-28.43,0,*55
1491156050.1,62921,17.44,74142.0,-1.63,-27.89,-28.25,0,*53
1491156051.36,62922,17.44,74142.5,-1.63,-28.09,-28.43,0,*57
1491156052.57,62923,17.44,74142.3,-1.63,-27.93,-28.37,0,*59
1491156053.83,62924,17.44,74140.8,-1.65,-27.77,-28.09,0,*5F
1491156055.12,62925,17.44,74140.8,-1.65,-27.61,-28.09,0,*59
1491156056.38,62926,17.44,74140.5,-1.65,-27.83,-28.15,0,*5B
1491156057.64,62927,17.44,74142.0,-1.63,-28.05,-28.43,0,*5E
1491156058.9,62928,17.44,74138.8,-1.65,-28.09,-28.53,0,*5A
1491156060.14,62929,17.44,74140.5,-1.65,-27.77,-28.15,0,*5F
1491156061.38,62930,17.44,74142.8,-1.67,-27.67,-28.05,0,*55
1491156062.67,62931,17.44,74142.3,-1.65,-27.61,-27.99,0,*5A
1491156063.93,62932,17.44,74142.8,-1.65,-27.67,-28.09,0,*59
1491156065.19,62933,17.44,74142.3,-1.67,-27.99,-28.47,0,*51
1491156066.47,62934,17.44,74144.0,-1.65,-28.09,-28.47,0,*52
1491156067.74,62935,17.44,74142.0,-1.65,-27.93,-28.25,0,*5B
1491156068.97,62936,17.44,74142.5,-1.67,-27.99,-28.37,0,*53
1491156070.18,62937,17.44,74142.0,-1.67,-27.55,-27.93,0,*53
1491156071.44,62938,17.44,74142.0,-1.65,-27.67,-28.09,0,*53
1491156072.69,62939,17.44,74140.3,-1.65,-28.15,-28.43,0,*56
1491156073.98,62940,17.44,74142.8,-1.65,-28.09,-28.47,0,*51
1491156075.23,62941,17.44,74144.5,-1.65,-27.83,-28.31,0,*5C
1491156076.49,62942,17.44,74142.3,-1.65,-27.83,-28.31,0,*5F
1491156077.76,62943,17.44,74140.0,-1.65,-27.77,-27.99,0,*58
1491156079.04,62944,17.44,74142.3,-1.65,-27.45,-27.83,0,*55
1491156080.3,62945,17.44,74142.0,-1.65,-27.51,-27.83,0,*51
1491156081.55,62946,17.44,74140.0,-1.65,-27.51,-27.83,0,*52
1491156082.79,62947,17.44,74142.0,-1.65,-27.93,-28.31,0,*5B
1491156084.07,62948,17.44,74144.5,-1.65,-27.99,-28.43,0,*5B
1491156085.31,62949,17.44,74142.0,-1.67,-28.15,-28.47,0,*57
1491156086.59,62950,17.44,74142.0,-1.65,-27.99,-28.47,0,*56
1491156087.85,62951,17.44,74140.3,-1.65,-27.99,-28.31,0,*56
1491156089.11,62952,17.44,74140.3,-1.65,-27.83,-28.15,0,*58
1491156090.39,62953,17.44,74140.5,-1.65,-27.99,-28.43,0,*51
1491156091.62,62954,17.44,74144.8,-1.65,-27.93,-28.37,0,*5F
1491156092.86,62955,17.44,74140.3,-1.67,-27.83,-28.31,0,*5B
1491156094.12,62956,17.44,74142.8,-1.67,-28.05,-28.47,0,*58
1491156095.35,62957,17.44,74138.5,-1.67,-27.99,-28.37,0,*54
1491156096.57,62958,17.44,74142.0,-1.67,-27.67,-28.15,0,*5A
1491156097.81,62959,17.44,74142.0,-1.67,-27.99,-28.31,0,*5C
1491156099.05,62960,17.44,74142.3,-1.67,-27.99,-28.53,0,*52
1491156100.31,62961,17.44,74142.0,-1.67,-28.21,-28.59,0,*55
1491156101.55,62962,17.44,74140.8,-1.67,-28.21,-28.53,0,*5C
1491156102.81,62963,17.44,74140.5,-1.67,-27.99,-28.47,0,*54
1491156104.07,62964,17.44,74142.8,-1.67,-28.05,-28.47,0,*59
1491156105.28,62965,17.44,74144.8,-1.67,-28.15,-28.37,0,*5E
1491156106.54,62966,17.44,74142.3,-1.69,-27.83,-28.15,0,*53
1491156107.8,62967,17.44,74144.3,-1.69,-27.67,-28.05,0,*59
1491156109.09,62968,17.44,74144.3,-1.69,-27.45,-27.83,0,*57
1491156110.35,62969,17.44,74140.5,-1.69,-27.83,-28.15,0,*5C
1491156111.6,62970,17.44,74146.3,-1.69,-27.99,-28.37,0,*5F
1491156112.89,62971,17.44,74140.8,-1.69,-28.05,-28.47,0,*53
1491156114.15,62972,17.44,74140.8,-1.69,-28.15,-28.59,0,*5E
1491156115.39,62973,17.44,74144.0,-1.71,-28.05,-28.53,0,*5D
1491156116.65,62974,17.44,74142.5,-1.69,-27.83,-28.15,0,*50
1491156117.88,62975,17.44,74140.3,-1.71,-27.77,-28.25,0,*50
1491156119.12,62976,17.44,74142.8,-1.69,-27.89,-28.31,0,*5E
1491156120.36,62977,17.44,74140.8,-1.67,-27.71,-28.05,0,*51
1491156121.62,62978,17.44,74142.5,-1.69,-27.89,-28.21,0,*51
1491156122.86,62979,17.44,74140.0,-1.71,-28.09,-28.53,0,*5B
1491156124.09,62980,17.44,74142.3,-1.71,-27.93,-28.43,0,*50
1491156125.36,62981,17.44,74144.0,-1.69,-28.05,-28.53,0,*59
1491156126.59,62982,17.44,74144.3,-1.71,-27.93,-28.25,0,*52
1491156127.86,62983,17.44,74146.0,-1.71,-27.61,-28.09,0,*50
1491156129.12,62984,17.44,74146.8,-1.69,-27.55,-27.99,0,*5F
1491156130.36,62985,17.44,74146.3,-1.69,-27.89,-28.31,0,*52
1491156131.6,62986,17.44,74144.3,-1.71,-27.71,-28.09,0,*54
1491156132.88,62987,17.44,74140.8,-1.69,-27.83,-28.21,0,*5B
1491156134.16,62988,17.44,74140.8,-1.69,-27.83,-28.21,0,*54
1491156135.4,62989,17.44,74144.8,-1.71,-27.93,-28.21,0,*5D
1491156136.67,62990,17.44,74144.5,-1.69,-27.67,-28.05,0,*51
1491156137.92,62991,17.44,74144.8,-1.69,-27.35,-27.71,0,*5B
1491156139.19,62992,17.44,74140.0,-1.69,-27.71,-28.05,0,*54
1491156140.47,62993,17.44,74144.0,-1.69,-27.35,-27.83,0,*54
1491156141.7,62994,17.44,74144.8,-1.69,-27.51,-27.89,0,*5B
1491156142.96,62995,17.44,74142.3,-1.69,-27.55,-27.99,0,*5F
1491156144.22,62996,17.44,74146.0,-1.69,-27.45,-27.89,0,*5C
1491156145.51,62997,17.44,74140.8,-1.69,-27.45,-27.83,0,*57
1491156146.72,62998,17.44,74142.0,-1.67,-27.55,-28.15,0,*57
1491156147.98,62999,17.44,74144.5,-1.69,-27.71,-28.21,0,*59
1491156149.22,63000,17.44,74142.8,-1.71,-27.77,-28.25,0,*5A
1491156150.46,63001,17.44,74140.5,-1.69,-27.55,-27.89,0,*5B
1491156151.72,63002,17.44,74142.3,-1.69,-27.51,-27.99,0,*5D
1491156152.95,63003,17.44,74144.5,-1.69,-27.89,-28.37,0,*52
1491156154.18,63004,17.44,74142.5,-1.69,-27.89,-28.37,0,*55
1491156155.44,63005,17.44,74144.8,-1.67,-27.83,-28.21,0,*57
1491156156.68,63006,17.44,74140.8,-1.67,-27.55,-27.99,0,*53
1491156157.91,63007,17.44,74144.3,-1.67,-27.55,-27.99,0,*52
1491156159.18,63008,17.44,74142.3,-1.65,-27.51,-27.99,0,*5B
1491156160.44,63009,17.44,74144.0,-1.69,-27.67,-27.99,0,*53
1491156161.71,63010,17.44,74142.8,-1.69,-27.67,-28.05,0,*51
1491156162.94,63011,17.44,74140.3,-1.67,-27.99,-28.37,0,*5E
1491156164.15,63012,17.44,74142.5,-1.67,-27.51,-27.89,0,*53
1491156165.41,63013,17.44,74144.5,-1.69,-27.55,-28.05,0,*53
1491156166.63,63014,17.44,74144.3,-1.67,-27.71,-28.15,0,*5D
1491156167.86,63015,17.44,74144.5,-1.67,-27.99,-28.31,0,*5C
1491156169.13,63016,17.44,74144.0,-1.67,-28.05,-28.47,0,*54
1491156170.39,63017,17.44,74146.0,-1.67,-28.21,-28.47,0,*53
1491156171.65,63018,17.44,74146.8,-1.69,-27.89,-28.21,0,*5F
1491156172.93,63019,17.44,74140.5,-1.69,-27.83,-28.21,0,*54
1491156174.22,63020,17.44,74140.3,-1.69,-28.05,-28.47,0,*5F
1491156175.46,63021,17.44,74140.3,-1.71,-28.05,-28.53,0,*52
1491156176.72,63022,17.44,74146.5,-1.69,-27.99,-28.31,0,*56
1491156177.98,63023,17.44,74140.8,-1.69,-27.71,-28.05,0,*56
1491156179.24,63024,17.44,74144.0,-1.69,-27.55,-28.05,0,*57
1491156180.51,63025,17.44,74144.3,-1.69,-27.89,-28.21,0,*51
1491156181.74,63026,17.38,74142.5,-1.69,-27.71,-28.15,0,*52
1491156182.99,63027,17.44,74146.0,-1.69,-27.67,-28.15,0,*54
1491156184.22,63028,17.44,74140.8,-1.69,-27.71,-28.15,0,*5C
1491156185.49,63029,17.44,74146.3,-1.69,-27.99,-28.31,0,*5D
1491156186.77,63030,17.44,74146.5,-1.69,-28.05,-28.47,0,*5E
1491156188.03,63031,17.44,74140.5,-1.69,-28.21,-28.53,0,*5C
1491156189.32,63032,17.44,74140.8,-1.69,-28.21,-28.59,0,*55
1491156190.58,63033,17.44,74140.5,-1.69,-27.99,-28.37,0,*50
1491156191.84,63034,17.44,74146.0,-1.69,-28.05,-28.37,0,*5D
1491156193.1,63035,17.44,74142.5,-1.69,-27.99,-28.37,0,*56
1491156194.36,63036,17.44,74140.3,-1.71,-28.05,-28.43,0,*55
1491156195.65,63037,17.44,74142.3,-1.69,-27.99,-28.43,0,*57
1491156196.91,63038,17.44,74142.3,-1.71,-28.05,-28.43,0,*5B
1491156198.14,63039,17.44,74144.5,-1.69,-27.71,-28.15,0,*5C
1491156199.4,63040,17.44,74140.8,-1.69,-27.99,-28.37,0,*54
1491156200.67,63041,17.44,74142.0,-1.69,-28.05,-28.53,0,*5D
1491156201.92,63042,17.44,74142.5,-1.69,-27.99,-28.37,0,*56
1491156203.16,63043,17.44,74144.5,-1.67,-27.99,-28.37,0,*59
1491156204.42,63044,17.44,74146.3,-1.71,-28.25,-28.59,0,*59
1491156205.68,63045,17.44,74140.3,-1.69,-27.99,-28.53,0,*53
1491156206.94,63046,17.44,74144.8,-1.71,-28.05,-28.43,0,*52
1491156208.21,63047,17.44,74142.5,-1.71,-28.25,-28.59,0,*5A
1491156209.48,63048,17.44,74142.8,-1.71,-28.25,-28.63,0,*5C
1491156210.74,63049,17.44,74144.0,-1.71,-28.21,-28.59,0,*50
1491156212.0,63050,17.44,74144.8,-1.71,-28.09,-28.43,0,*59
1491156213.21,63051,17.44,74146.0,-1.71,-27.93,-28.37,0,*57
1491156214.47,63052,17.44,74144.3,-1.73,-28.21,-28.53,0,*52
1491156215.71,63053,17.44,74140.8,-1.71,-27.93,-28.25,0,*56
1491156216.95,63054,17.44,74144.3,-1.71,-27.89,-28.25,0,*5A
1491156218.24,63055,17.44,74144.8,-1.69,-27.83,-28.21,0,*5C
1491156219.48,63056,17.44,74142.3,-1.71,-28.05,-28.53,0,*52
1491156220.71,63057,17.44,74146.8,-1.71,-28.09,-28.53,0,*5F
1491156221.95,63058,17.44,74144.5,-1.71,-28.05,-28.53,0,*5C
1491156223.19,63059,17.44,74140.8,-1.71,-28.05,-28.53,0,*5D
1491156224.43,63060,17.44,74142.5,-1.71,-28.09,-28.53,0,*5B
1491156225.71,63061,17.44,74140.3,-1.73,-28.05,-28.43,0,*55
1491156226.92,63062,17.44,74142.8,-1.71,-27.55,-27.93,0,*5C
1491156228.2,63063,17.44,74144.8,-1.73,-28.05,-28.43,0,*57
1491156229.46,63064,17.44,74140.5,-1.73,-28.05,-28.53,0,*51
1491156230.75,63065,17.38,74142.8,-1.73,-28.21,-28.59,0,*5C
1491156232.03,63066,17.44,74144.8,-1.73,-28.21,-28.75,0,*51
1491156233.31,63067,17.44,74142.8,-1.73,-28.21,-28.59,0,*5E
1491156234.57,63068,17.44,74140.3,-1.73,-28.05,-28.37,0,*5F
1491156235.83,63069,17.44,74144.3,-1.73,-27.93,-28.25,0,*5D
1491156237.09,63070,17.44,74144.3,-1.73,-27.89,-28.09,0,*50
1491156238.34,63071,17.38,74144.5,-1.73,-27.89,-28.25,0,*5F
1491156239.6,63072,17.44,74148.5,-1.73,-27.71,-28.09,0,*55
1491156240.86,63073,17.44,74142.3,-1.73,-27.71,-28.21,0,*5E
1491156242.13,63074,17.44,74144.5,-1.71,-27.61,-28.05,0,*5C
1491156243.4,63075,17.44,74144.0,-1.71,-27.61,-28.05,0,*5D
1491156244.61,63076,17.44,74146.8,-1.71,-27.51,-27.93,0,*5D
1491156245.85,63077,17.44,74144.3,-1.71,-27.77,-28.09,0,*54
1491156247.09,63078,17.44,74142.0,-1.71,-28.05,-28.37,0,*5C
1491156248.32,63079,17.44,74146.0,-1.71,-27.93,-28.43,0,*5E
1491156249.56,63080,17.44,74146.8,-1.71,-27.89,-28.25,0,*53
1491156250.82,63081,17.44,74146.3,-1.71,-28.05,-28.43,0,*59
1491156252.03,63082,17.44,74144.3,-1.71,-27.93,-28.37,0,*59
1491156253.27,63083,17.44,74148.3,-1.71,-28.05,-28.53,0,*5A
1491156254.53,63084,17.44,74144.5,-1.73,-27.93,-28.43,0,*5E
1491156255.79,63085,17.44,74142.5,-1.71,-28.05,-28.25,0,*5D
1491156257.02,63086,17.44,74144.3,-1.73,-27.55,-27.93,0,*54
1491156258.28,63087,17.44,74146.5,-1.73,-27.77,-28.09,0,*59
1491156259.51,63088,17.44,74144.5,-1.73,-27.93,-28.37,0,*51
1491156260.75,63089,17.44,74144.5,-1.71,-27.89,-28.25,0,*5A
1491156262.01,63090,17.44,74144.3,-1.73,-27.89,-28.25,0,*50
1491156263.26,63091,17.44,74144.8,-1.73,-28.09,-28.53,0,*57
1491156264.54,63092,17.44,74146.5,-1.73,-28.09,-28.43,0,*55
1491156265.82,63093,17.44,74144.3,-1.73,-28.09,-28.43,0,*54
1491156267.1,63094,17.44,74144.3,-1.73,-28.09,-28.43,0,*53
1491156268.36,63095,17.44,74142.5,-1.73,-27.89,-28.21,0,*51
1491156269.63,63096,17.44,74144.3,-1.71,-27.61,-28.09,0,*5C
1491156270.89,63097,17.44,74142.8,-1.73,-27.71,-28.05,0,*52
1491156272.15,63098,17.44,74144.3,-1.71,-28.05,-28.43,0,*51
1491156273.39,63099,17.44,74144.0,-1.71,-28.05,-28.37,0,*53
1491156274.63,63100,17.44,74148.0,-1.71,-27.71,-28.21,0,*59
1491156275.84,63101,17.44,74148.0,-1.71,-27.55,-27.93,0,*58
1491156277.08,63102,17.44,74146.3,-1.71,-27.51,-28.05,0,*5F
1491156278.31,63103,17.44,74146.0,-1.71,-28.09,-28.53,0,*5F
1491156279.57,63104,17.44,74144.5,-1.71,-28.05,-28.43,0,*55
1491156280.81,63105,17.44,74144.3,-1.71,-27.89,-28.21,0,*5B
1491156282.02,63106,17.44,74146.0,-1.71,-27.93,-28.37,0,*54
1491156283.26,63107,17.44,74148.3,-1.71,-28.05,-28.53,0,*57
1491156284.5,63108,17.44,74142.5,-1.71,-28.09,-28.53,0,*54
1491156285.74,63109,17.44,74146.0,-1.69,-27.71,-28.15,0,*5E
1491156286.97,63110,17.38,74144.8,-1.71,-27.77,-28.09,0,*54
1491156288.21,63111,17.38,74142.0,-1.71,-28.09,-28.53,0,*5C
1491156289.48,63112,17.44,74144.5,-1.71,-28.25,-28.63,0,*52
1491156290.74,63113,17.38,74142.5,-1.71,-28.25,-28.59,0,*5A
1491156291.98,63114,17.44,74146.5,-1.71,-28.09,-28.53,0,*59
1491156293.27,63115,17.38,74142.8,-1.73,-28.25,-28.63,0,*57
1491156294.52,63116,17.38,74142.0,-1.75,-28.43,-28.79,0,*59
1491156295.77,63117,17.38,74144.5,-1.73,-28.37,-28.79,0,*5D
1491156297.05,63118,17.38,74142.3,-1.73,-28.25,-28.75,0,*5D
1491156298.31,63119,17.44,74146.5,-1.73,-28.09,-28.53,0,*56
1491156299.57,63120,17.38,74142.3,-1.75,-28.09,-28.47,0,*5F
1491156300.85,63121,17.38,74142.0,-1.77,-28.09,-28.47,0,*5C
1491156302.09,63122,17.38,74142.5,-1.73,-27.93,-28.37,0,*50
1491156303.35,63123,17.44,74144.3,-1.73,-28.37,-28.63,0,*51
1491156304.63,63124,17.44,74146.8,-1.73,-28.43,-28.63,0,*55
1491156305.89,63125,17.38,74142.0,-1.75,-28.09,-28.47,0,*5A
1491156307.15,63126,17.44,74144.0,-1.73,-28.09,-28.53,0,*5A
1491156308.41,63127,17.44,74144.0,-1.75,-28.09,-28.47,0,*58
1491156309.64,63128,17.44,74146.8,-1.75,-27.77,-28.09,0,*5B
1491156310.9,63129,17.38,74144.8,-1.75,-27.99,-28.43,0,*54
1491156312.19,63130,17.44,74146.0,-1.73,-28.21,-28.63,0,*54
1491156313.45,63131,17.44,74146.0,-1.73,-27.93,-28.25,0,*51
1491156314.69,63132,17.44,74146.0,-1.75,-27.93,-28.43,0,*54
1491156315.94,63133,17.44,74146.8,-1.73,-27.89,-28.25,0,*58
1491156317.2,63134,17.38,74142.3,-1.73,-27.77,-28.21,0,*5A
1491156318.46,63135,17.44,74146.0,-1.73,-28.09,-28.53,0,*58
1491156319.74,63136,17.38,74140.3,-1.73,-28.09,-28.59,0,*51
1491156321.03,63137,17.44,74146.0,-1.73,-28.21,-28.63,0,*53
1491156322.29,63138,17.38,74146.5,-1.75,-28.09,-28.47,0,*56
1491156323.5,63139,17.44,74144.0,-1.75,-28.31,-28.69,0,*50
1491156324.78,63140,17.44,74146.0,-1.73,-28.21,-28.43,0,*51
1491156326.07,63141,17.44,74146.8,-1.73,-28.21,-28.59,0,*5B
1491156327.34,63142,17.44,74144.8,-1.75,-28.25,-28.63,0,*53
1491156328.57,63143,17.38,74142.8,-1.75,-27.83,-28.15,0,*50
1491156329.83,63144,17.44,74144.3,-1.73,-27.77,-28.09,0,*57
1491156331.09,63145,17.38,74144.8,-1.73,-28.09,-28.53,0,*5F
1491156332.36,63146,17.38,74146.5,-1.75,-28.25,-28.63,0,*57
1491156333.64,63147,17.44,74144.5,-1.73,-28.09,-28.43,0,*5C
1491156334.89,63148,17.38,74144.5,-1.75,-28.09,-28.43,0,*55
1491156336.18,63149,17.38,74144.8,-1.73,-28.05,-28.59,0,*55
1491156337.42,63150,17.44,74146.0,-1.75,-27.99,-28.31,0,*5F
1491156338.66,63151,17.44,74144.3,-1.75,-27.93,-28.25,0,*51
1491156339.92,63152,17.38,74142.8,-1.73,-27.77,-28.21,0,*5A
1491156341.15,63153,17.38,74146.3,-1.75,-28.15,-28.47,0,*56
1491156342.42,63154,17.44,74146.3,-1.75,-28.25,-28.47,0,*52
1491156343.67,63155,17.44,74148.3,-1.73,-27.77,-28.09,0,*57
1491156344.91,63156,17.44,74144.8,-1.75,-27.83,-28.15,0,*54
1491156346.17,63157,17.38,74142.3,-1.75,-27.83,-28.25,0,*56
1491156347.4,63158,17.38,74144.3,-1.75,-28.15,-28.59,0,*52
1491156348.66,63159,17.38,74144.8,-1.75,-28.09,-28.43,0,*55
1491156349.94,63160,17.44,74146.8,-1.73,-28.09,-28.43,0,*59
1491156351.2,63161,17.44,74142.5,-1.73,-28.09,-28.53,0,*59
1491156352.44,63162,17.38,74140.3,-1.75,-28.31,-28.63,0,*54
1491156353.72,63163,17.44,74142.8,-1.73,-28.25,-28.59,0,*5F
1491156354.99,63164,17.38,74142.5,-1.75,-28.25,-28.59,0,*5E
1491156356.23,63165,17.38,74142.0,-1.75,-28.15,-28.63,0,*55
1491156357.49,63166,17.38,74142.8,-1.75,-28.09,-28.59,0,*52
1491156358.73,63167,17.44,74144.3,-1.75,-28.15,-28.59,0,*5E
1491156359.96,63168,17.38,74142.0,-1.75,-28.15,-28.59,0,*51
1491156361.22,63169,17.38,74140.5,-1.75,-27.99,-28.47,0,*54
1491156362.48,63170,17.38,74146.0,-1.77,-28.15,-28.63,0,*53
1491156363.78,63171,17.44,74144.3,-1.77,-28.25,-28.63,0,*51
1491156365.06,63172,17.38,74146.5,-1.77,-28.09,-28.47,0,*5A
1491156366.33,63173,17.44,74146.5,-1.77,-27.99,-28.31,0,*5C
1491156367.62,63174,17.38,74142.0,-1.77,-27.83,-28.25,0,*55
1491156368.9,63175,17.44,74144.5,-1.77,-27.83,-28.25,0,*54
1491156370.17,63176,17.38,74140.8,-1.77,-27.93,-28.25,0,*56
1491156371.41,63177,17.38,74146.3,-1.75,-27.99,-28.31,0,*5A
1491156372.65,63178,17.38,74146.5,-1.75,-27.67,-27.99,0,*59
1491156373.91,63179,17.38,74142.8,-1.77,-27.55,-27.99,0,*5B
1491156375.15,63180,17.38,74144.3,-1.75,-27.55,-27.99,0,*5F
1491156376.42,63181,17.38,74144.0,-1.75,-27.61,-27.99,0,*59
1491156377.68,63182,17.38,74144.8,-1.73,-27.61,-27.93,0,*56
1491156378.92,63183,17.38,74146.3,-1.75,-27.55,-27.99,0,*5C
1491156380.15,63184,17.38,74144.3,-1.73,-27.51,-27.93,0,*53
1491156381.41,63185,17.38,74146.5,-1.73,-27.71,-28.05,0,*50
1491156382.65,63186,17.44,74146.5,-1.75,-27.67,-28.09,0,*5E
1491156383.9,63187,17.38,74148.3,-1.73,-27.71,-28.09,0,*5E
1491156385.16,63188,17.38,74146.5,-1.73,-27.89,-28.25,0,*58
1491156386.42,63189,17.38,74146.3,-1.73,-27.93,-28.25,0,*52
1491156387.7,63190,17.38,74144.0,-1.73,-28.09,-28.43,0,*56
1491156388.96,63191,17.38,74144.3,-1.73,-28.09,-28.53,0,*56
1491156390.2,63192,17.44,74148.3,-1.75,-28.31,-28.63,0,*5B
1491156391.49,63193,17.38,74144.8,-1.73,-28.25,-28.63,0,*59
1491156392.77,63194,17.38,74144.3,-1.73,-28.21,-28.59,0,*53
1491156394.06,63195,17.38,74144.0,-1.73,-28.21,-28.59,0,*52
1491156395.32,63196,17.38,74144.8,-1.73,-28.37,-28.63,0,*5F
1491156396.59,63197,17.38,74144.8,-1.75,-28.25,-28.59,0,*52
1491156397.84,63198,17.38,74148.0,-1.73,-27.71,-28.09,0,*50
1491156399.08,63199,17.38,74144.5,-1.75,-27.99,-28.31,0,*5A
1491156400.37,63200,17.38,74144.0,-1.73,-28.09,-28.59,0,*57
1491156401.63,63201,17.38,74146.0,-1.73,-28.05,-28.53,0,*50
1491156402.86,63202,17.44,74146.3,-1.75,-27.89,-28.25,0,*5F
1491156404.12,63203,17.38,74146.5,-1.73,-28.09,-28.53,0,*5E
1491156405.38,63204,17.38,74146.0,-1.73,-28.09,-28.53,0,*59
1491156406.66,63205,17.38,74146.5,-1.73,-28.21,-28.59,0,*58
1491156407.95,63206,17.38,74144.0,-1.73,-28.25,-28.59,0,*5F
1491156409.2,63207,17.38,74142.5,-1.75,-28.43,-28.79,0,*5A
1491156410.47,63208,17.38,74144.5,-1.75,-28.25,-28.63,0,*5E
1491156411.7,63209,17.38,74146.8,-1.75,-28.15,-28.47,0,*5A
1491156412.97,63210,17.38,74142.8,-1.75,-28.25,-28.59,0,*5E
1491156414.2,63211,17.38,74144.3,-1.75,-28.47,-28.69,0,*58
1491156415.43,63212,17.38,74146.0,-1.75,-28.47,-28.85,0,*59
1491156416.67,63213,17.38,74146.3,-1.75,-28.47,-28.85,0,*58
1491156417.93,63214,17.38,74142.5,-1.75,-28.25,-28.63,0,*53
1491156419.2,63215,17.38,74142.0,-1.75,-28.09,-28.59,0,*55
1491156420.46,63216,17.38,74144.0,-1.75,-28.09,-28.47,0,*59
1491156421.71,63217,17.38,74144.0,-1.75,-28.09,-28.43,0,*5C
1491156422.92,63218,17.38,74146.0,-1.75,-28.31,-28.69,0,*50
1491156424.22,63219,17.38,74146.0,-1.77,-28.25,-28.63,0,*5C
1491156425.48,63220,17.38,74146.0,-1.77,-28.15,-28.63,0,*55
1491156426.72,63221,17.38,74146.8,-1.77,-28.31,-28.69,0,*58
1491156427.98,63222,17.44,74146.8,-1.77,-28.43,-28.69,0,*5E
1491156429.21,63223,17.38,74144.0,-1.81,-28.53,-28.91,0,*50
1491156430.47,63224,17.38,74144.8,-1.77,-28.43,-28.69,0,*58
1491156431.76,63225,17.38,74144.8,-1.77,-28.09,-28.43,0,*5F
1491156432.98,63226,17.38,74146.8,-1.81,-28.43,-28.69,0,*53
1491156434.28,63227,17.38,74144.3,-1.77,-28.25,-28.63,0,*51
1491156435.53,63228,17.38,74146.0,-1.77,-28.47,-28.69,0,*50
1491156436.81,63229,17.38,74142.0,-1.77,-28.47,-28.79,0,*50
1491156438.06,63230,17.38,74146.3,-1.81,-28.43,-28.79,0,*55
1491156439.29,63231,17.38,74144.5,-1.77,-28.31,-28.69,0,*59
1491156440.52,63232,17.38,74144.0,-1.81,-28.53,-28.79,0,*56
1491156441.75,63233,17.38,74144.5,-1.81,-27.99,-28.31,0,*52
1491156442.99,63234,17.38,74146.3,-1.75,-27.83,-28.15,0,*53
1491156444.25,63235,17.38,74146.5,-1.77,-27.67,-28.09,0,*57
1491156445.48,63236,17.38,74142.0,-1.81,-28.09,-28.53,0,*55
1491156446.75,63237,17.44,74146.8,-1.77,-28.15,-28.59,0,*5A
1491156448.03,63238,17.38,74146.5,-1.77,-28.09,-28.47,0,*57
1491156449.29,63239,17.38,74146.0,-1.77,-28.09,-28.69,0,*5A
1491156450.58,63240,17.38,74144.5,-1.77,-28.09,-28.47,0,*58
1491156451.81,63241,17.38,74146.8,-1.81,-28.09,-28.53,0,*55
1491156453.06,63242,17.38,74142.5,-1.81,-28.09,-28.43,0,*57
1491156454.35,63243,17.38,74142.5,-1.77,-28.09,-28.59,0,*54
1491156455.64,63244,17.38,74146.0,-1.77,-28.09,-28.59,0,*53
1491156456.9,63245,17.38,74146.0,-1.77,-28.25,-28.69,0,*5F
1491156458.13,63246,17.38,74144.8,-1.81,-28.09,-28.53,0,*52
1491156459.38,63247,17.38,74142.5,-1.81,-27.83,-28.43,0,*5F
1491156460.67,63248,17.38,74142.0,-1.77,-27.99,-28.43,0,*52
1491156461.95,63249,17.38,74144.3,-1.77,-28.25,-28.47,0,*5F
1491156463.19,63250,17.38,74144.0,-1.81,-28.31,-28.63,0,*5D
1491156464.45,63251,17.38,74148.3,-1.81,-28.25,-28.59,0,*50
1491156465.71,63252,17.38,74146.3,-1.77,-27.99,-28.31,0,*5C
1491156466.96,63253,17.38,74140.8,-1.77,-27.93,-28.31,0,*57
1491156468.22,63254,17.38,74144.5,-1.77,-28.09,-28.31,0,*5C
1491156469.51,63255,17.38,74142.3,-1.77,-27.99,-28.43,0,*5E
1491156470.77,63256,17.38,74146.8,-1.77,-27.99,-28.15,0,*5E
1491156472.04,63257,17.38,74146.5,-1.77,-28.15,-28.59,0,*5C
1491156473.26,63258,17.38,74144.0,-1.81,-27.99,-28.37,0,*59
1491156474.55,63259,17.38,74146.0,-1.77,-27.83,-28.25,0,*59
1491156475.84,63260,17.38,74146.5,-1.77,-28.09,-28.59,0,*55
1491156477.07,63261,17.38,74146.8,-1.81,-28.09,-28.37,0,*55
1491156478.35,63262,17.38,74146.5,-1.77,-27.99,-28.47,0,*5E
1491156479.6,63263,17.38,74146.8,-1.77,-27.93,-28.31,0,*54
1491156480.88,63264,17.38,74144.3,-1.77,-28.09,-28.47,0,*5E
1491156482.12,63265,17.38,74144.8,-1.75,-27.93,-28.25,0,*55
1491156483.38,63266,17.38,74144.3,-1.77,-28.15,-28.47,0,*51
1491156484.66,63267,17.38,74144.5,-1.77,-28.25,-28.79,0,*5E
1491156485.95,63268,17.38,74148.3,-1.77,-28.25,-28.47,0,*5C
1491156487.22,63269,17.38,74146.0,-1.77,-28.15,-28.59,0,*51
1491156488.48,63270,17.38,74144.8,-1.77,-28.31,-28.63,0,*56
1491156489.77,63271,17.38,74144.5,-1.77,-28.25,-28.59,0,*5B
1491156491.04,63272,17.38,74146.0,-1.77,-28.15,-28.59,0,*5B
1491156492.29,63273,17.38,74146.8,-1.81,-28.21,-28.75,0,*5A
1491156493.55,63274,17.38,74146.0,-1.77,-28.15,-28.47,0,*52
1491156494.81,63275,17.38,74146.3,-1.81,-28.25,-28.59,0,*56
1491156496.07,63276,17.38,74144.0,-1.81,-28.21,-28.59,0,*51
1491156497.33,63277,17.38,74146.0,-1.77,-28.25,-28.69,0,*5E
1491156498.57,63278,17.38,74144.3,-1.77,-28.31,-28.69,0,*54
1491156499.79,63279,17.38,74146.8,-1.81,-28.53,-28.79,0,*59
1491156501.05,63280,17.38,74144.3,-1.81,-28.25,-28.59,0,*5C
1491156502.29,63281,17.38,74146.3,-1.81,-28.21,-28.69,0,*5A